Location: Unspecified
(43.8044°N, 11.0278°E)
Time: 02:59:25
(UTC+02:00)

Cosmos 2058 - Visible Passes

Search period start: 28 July 2016 00:00
Search period end: 07 August 2016 00:00
Orbit: 565 x 585 km, 82.5° (Epoch: 27 July)

Date Brightness Start Highest point End Pass type
(mag) Time Alt. Az. Time Alt. Az. Time Alt. Az.
28 Jul 3.4 05:24:22 10° N 05:28:37 68° E 05:32:47 10° SSE visible
30 Jul 6.1 03:56:54 10° NE 03:58:25 12° ENE 03:59:55 10° E visible
31 Jul 5.9 03:59:42 10° NNE 04:02:11 15° ENE 04:04:40 10° ESE visible
01 Aug 5.6 04:02:50 10° NNE 04:05:56 19° ENE 04:09:01 10° ESE visible
02 Aug 5.2 04:06:08 10° NNE 04:09:40 25° ENE 04:13:10 10° SE visible
03 Aug 4.7 04:09:31 10° N 04:13:22 33° ENE 04:17:10 10° SE visible
04 Aug 4.1 04:13:00 10° N 04:17:03 43° ENE 04:21:04 10° SSE visible
05 Aug 3.5 04:16:31 10° N 04:20:43 58° E 04:24:51 10° SSE visible
06 Aug 3.0 04:20:07 10° N 04:24:22 79° E 04:28:21 11° SSE visible
